Weather History for K8A0 - September, 2012

Change the Weather History Date:

Wednesday, September 12, 2012

  Actual Average (KGAD) Record (KGAD)
Temperature  
Mean Temperature 72 °F -  
Max Temperature 80 °F 82 °F 96 °F (1931)
Min Temperature 64 °F 60 °F 45 °F (1940)
Cooling Degree Days 7    
Growing Degree Days 22 (Base 50)    
Moisture  
Dew Point 56 °F    
Average Humidity 63    
Maximum Humidity 83    
Minimum Humidity 39    
Precipitation  
Precipitation 0.00 in - - ()
Sea Level Pressure  
Sea Level Pressure 30.25 in    
Wind  
Wind Speed 4 mph (ESE)    
Max Wind Speed 10 mph    
Max Gust Speed -    
Visibility 10 miles    
Events      
Averages and records for this station are not official NWS values.
T = Trace of Precipitation, MM = Missing Value Source: NWS Daily Summary

Daily Weather History Graph

Daily Weather History Graph

Search for Another Location

Airport or City:

Trip Planner

Search our weather history database for the weather conditions in past years. The results will help you decide how hot, cold, wet, or windy it might be!

Date:

Astronomy

Sep. 12, 2012 Rise Set
Actual Time 6:26 AM CDT 6:55 PM CDT
Civil Twilight 6:01 AM CDT 7:20 PM CDT
Nautical Twilight 5:31 AM CDT 7:49 PM CDT
Astronomical Twilight 5:01 AM CDT 8:19 PM CDT
Moon 2:50 AM CDT (9/12) 4:36 PM CDT (9/12)
Length of Visible Light 13h 19m
Length of Day
12h 28m
Waning Crescent, 13% of the Moon is Illuminated
Sep 12
Waning Crescent
Sep 15
New
Sep 22
First Quarter
Sep 29
Full
Oct 8
Last Quarter

Hourly Weather History & Observations

Time (CDT) Temp. Heat Index Dew Point Humidity Pressure Visibility Wind Dir Wind Speed Gust Speed Precip Events Conditions
12:15 AM 64.4 °F - 55.4 °F 73% 30.24 in 10.0 mi East 3.5 mph - N/A   Unknown
12:35 AM 64.4 °F - 55.4 °F 73% 30.23 in 10.0 mi East 4.6 mph - N/A   Unknown
12:55 AM 64.4 °F - 55.4 °F 73% 30.24 in 10.0 mi Calm Calm - N/A   Unknown
1:15 AM 64.4 °F - 55.4 °F 73% 30.24 in 10.0 mi East 3.5 mph - N/A   Unknown
1:35 AM 64.4 °F - 55.4 °F 73% 30.23 in 10.0 mi ESE 3.5 mph - N/A   Unknown
1:55 AM 64.4 °F - 55.4 °F 73% 30.23 in 10.0 mi East 3.5 mph - N/A   Unknown
2:15 AM 64.4 °F - 55.4 °F 73% 30.23 in 10.0 mi East 3.5 mph - N/A   Unknown
2:35 AM 64.4 °F - 55.4 °F 73% 30.23 in 10.0 mi ESE 3.5 mph - N/A   Unknown
2:55 AM 64.4 °F - 55.4 °F 73% 30.22 in 10.0 mi Calm Calm - N/A   Unknown
3:15 AM 64.4 °F - 55.4 °F 73% 30.22 in 10.0 mi Calm Calm - N/A   Unknown
3:35 AM 64.4 °F - 55.4 °F 73% 30.23 in 10.0 mi Calm Calm - N/A   Unknown
3:55 AM 64.4 °F - 55.4 °F 73% 30.23 in 10.0 mi East 3.5 mph - N/A   Unknown
4:15 AM 64.4 °F - 55.4 °F 73% 30.23 in 10.0 mi Calm Calm - N/A   Unknown
4:35 AM 64.4 °F - 55.4 °F 73% 30.23 in 10.0 mi ESE 3.5 mph - N/A   Unknown
4:55 AM 64.4 °F - 55.4 °F 73% 30.24 in 10.0 mi Calm Calm - N/A   Unknown
5:15 AM 64.4 °F - 55.4 °F 73% 30.24 in 10.0 mi Calm Calm - N/A   Unknown
5:35 AM 64.4 °F - 55.4 °F 73% 30.25 in 10.0 mi ESE 3.5 mph - N/A   Unknown
5:55 AM 64.4 °F - 57.2 °F 77% 30.26 in 10.0 mi Calm Calm - N/A   Unknown
6:15 AM 64.4 °F - 57.2 °F 77% 30.26 in 10.0 mi East 5.8 mph - N/A   Unknown
6:35 AM 64.4 °F - 57.2 °F 77% 30.27 in 10.0 mi East 4.6 mph - N/A   Unknown
6:55 AM 64.4 °F - 57.2 °F 77% 30.28 in 10.0 mi East 4.6 mph - N/A   Unknown
7:15 AM 64.4 °F - 59.0 °F 83% 30.29 in 10.0 mi East 4.6 mph - N/A   Unknown
7:35 AM 66.2 °F - 59.0 °F 78% 30.29 in 10.0 mi East 3.5 mph - N/A   Unknown
7:55 AM 66.2 °F - 59.0 °F 78% 30.29 in 10.0 mi East 6.9 mph - N/A   Unknown
8:35 AM 68.0 °F - 59.0 °F 73% 30.30 in 10.0 mi East 6.9 mph - N/A   Unknown
8:55 AM 68.0 °F - 59.0 °F 73% 30.30 in 10.0 mi East 4.6 mph - N/A   Unknown
9:15 AM 69.8 °F - 59.0 °F 68% 30.31 in 10.0 mi East 6.9 mph - N/A   Unknown
9:35 AM 69.8 °F - 59.0 °F 68% 30.31 in 10.0 mi East 4.6 mph - N/A   Unknown
9:55 AM 71.6 °F - 57.2 °F 60% 30.32 in 10.0 mi SE 5.8 mph - N/A   Unknown
10:15 AM 73.4 °F - 55.4 °F 53% 30.32 in 10.0 mi SE 5.8 mph - N/A   Unknown
10:35 AM 73.4 °F - 55.4 °F 53% 30.32 in 10.0 mi SE 5.8 mph - N/A   Unknown
10:55 AM 73.4 °F - 57.2 °F 57% 30.32 in 10.0 mi SE 4.6 mph - N/A   Unknown
11:15 AM 73.4 °F - 59.0 °F 61% 30.31 in 10.0 mi East 6.9 mph - N/A   Unknown
11:35 AM 73.4 °F - 57.2 °F 57% 30.31 in 10.0 mi ESE 5.8 mph - N/A   Unknown
11:55 AM 77.0 °F - 57.2 °F 50% 30.31 in 10.0 mi South 3.5 mph - N/A   Unknown
12:15 PM 75.2 °F - 57.2 °F 53% 30.30 in 10.0 mi SE 4.6 mph - N/A   Unknown
12:35 PM 77.0 °F - 57.2 °F 50% 30.29 in 10.0 mi SE 6.9 mph - N/A   Unknown
12:55 PM 77.0 °F - 55.4 °F 47% 30.28 in 10.0 mi ESE 6.9 mph - N/A   Unknown
1:15 PM 78.8 °F - 59.0 °F 51% 30.27 in 10.0 mi East 9.2 mph - N/A   Unknown
1:35 PM 77.0 °F - 55.4 °F 47% 30.26 in 10.0 mi SSE 6.9 mph - N/A   Unknown
1:55 PM 78.8 °F - 55.4 °F 44% 30.25 in 10.0 mi SSE 5.8 mph - N/A   Unknown
2:15 PM 77.0 °F - 55.4 °F 47% 30.25 in 10.0 mi ESE 4.6 mph - N/A   Unknown
2:35 PM 77.0 °F - 53.6 °F 44% 30.24 in 10.0 mi ESE 3.5 mph - N/A   Unknown
2:55 PM 78.8 °F - 55.4 °F 44% 30.23 in 10.0 mi ESE 10.4 mph - N/A   Unknown
3:15 PM 80.6 °F 80.3 °F 53.6 °F 39% 30.23 in 10.0 mi East 5.8 mph - N/A   Unknown
3:35 PM 78.8 °F - 55.4 °F 44% 30.23 in 10.0 mi ESE 5.8 mph - N/A   Unknown
3:55 PM 78.8 °F - 53.6 °F 42% 30.22 in 10.0 mi SE 8.1 mph - N/A   Unknown
4:15 PM 78.8 °F - 53.6 °F 42% 30.22 in 10.0 mi SE 5.8 mph - N/A   Unknown
4:55 PM 78.8 °F - 53.6 °F 42% 30.22 in 10.0 mi ESE 6.9 mph - N/A   Unknown
5:15 PM 78.8 °F - 53.6 °F 42% 30.21 in 10.0 mi East 5.8 mph - N/A   Unknown
5:35 PM 77.0 °F - 53.6 °F 44% 30.21 in 10.0 mi East 8.1 mph - N/A   Unknown
5:55 PM 75.2 °F - 53.6 °F 47% 30.21 in 10.0 mi East 4.6 mph - N/A   Unknown
6:15 PM 73.4 °F - 55.4 °F 53% 30.21 in 10.0 mi East 4.6 mph - N/A   Unknown
6:35 PM 73.4 °F - 55.4 °F 53% 30.21 in 10.0 mi East 3.5 mph - N/A   Unknown
6:55 PM 71.6 °F - 55.4 °F 57% 30.21 in 10.0 mi East 3.5 mph - N/A   Unknown
7:35 PM 69.8 °F - 59.0 °F 68% 30.23 in 10.0 mi East 3.5 mph - N/A   Unknown
7:55 PM 69.8 °F - 57.2 °F 64% 30.23 in 10.0 mi East 3.5 mph - N/A   Unknown
8:15 PM 69.8 °F - 59.0 °F 68% 30.24 in 10.0 mi ESE 3.5 mph - N/A   Unknown
8:35 PM 69.8 °F - 59.0 °F 68% 30.24 in 10.0 mi East 3.5 mph - N/A   Unknown
8:55 PM 69.8 °F - 59.0 °F 68% 30.24 in 10.0 mi East 3.5 mph - N/A   Unknown
9:15 PM 69.8 °F - 57.2 °F 64% 30.24 in 10.0 mi East 4.6 mph - N/A   Unknown
9:35 PM 69.8 °F - 57.2 °F 64% 30.24 in 10.0 mi East 3.5 mph - N/A   Unknown
9:55 PM 69.8 °F - 57.2 °F 64% 30.25 in 10.0 mi East 3.5 mph - N/A   Unknown
10:15 PM 68.0 °F - 57.2 °F 68% 30.25 in 10.0 mi East 3.5 mph - N/A   Unknown
10:35 PM 68.0 °F - 59.0 °F 73% 30.25 in 10.0 mi East 3.5 mph - N/A   Unknown
11:15 PM 68.0 °F - 57.2 °F 68% 30.25 in 10.0 mi East 4.6 mph - N/A   Unknown
11:35 PM 68.0 °F - 57.2 °F 68% 30.26 in 10.0 mi East 3.5 mph - N/A   Unknown
11:55 PM 68.0 °F - 57.2 °F 68% 30.25 in 10.0 mi East 3.5 mph - N/A   Unknown